This is the latest recevied weather packets stored in our database for station/object OK4ZAW-16. If no packets are shown the sender has not sent any weather packets the latest 10 day(s).
| Time | Temp. | Humidity | Pressure | Rain* | Wind** | Luminosity | Snow |
|---|---|---|---|---|---|---|---|
| 1777470479 | 6.67° C | 35% | 1025.7 hPa | - | - | 150 W/m² | - |
| 1777470063 | 6.11° C | 35% | 1025.6 hPa | - | - | 150 W/m² | - |
| 1777469647 | 6.11° C | 37% | 1025.6 hPa | - | - | 150 W/m² | - |
| 1777469231 | 5° C | 38% | 1025.6 hPa | - | - | 150 W/m² | - |
| 1777468815 | 4.44° C | 40% | 1025.4 hPa | - | - | 150 W/m² | - |
| 1777468399 | 3.89° C | 41% | 1025.3 hPa | - | - | 150 W/m² | - |
| 1777467983 | 3.89° C | 41% | 1025.3 hPa | - | - | 150 W/m² | - |
| 1777467567 | 3.89° C | 42% | 1025.1 hPa | - | - | 150 W/m² | - |
| 1777467151 | 3.89° C | 42% | 1025.1 hPa | - | - | 150 W/m² | - |
| 1777466735 | 3.89° C | 41% | 1025.2 hPa | - | - | 150 W/m² | - |
| 1777466319 | 4.44° C | 42% | 1025.2 hPa | - | - | 150 W/m² | - |
| 1777465903 | 4.44° C | 42% | 1025.2 hPa | - | - | 150 W/m² | - |
| 1777465487 | 3.33° C | 44% | 1025.3 hPa | - | - | 150 W/m² | - |
| 1777464656 | 3.33° C | 43% | 1025.3 hPa | - | - | 150 W/m² | - |
| 1777463824 | 3.89° C | 45% | 1025.3 hPa | - | - | 150 W/m² | - |
| 1777463408 | 3.89° C | 46% | 1025.3 hPa | - | - | 150 W/m² | - |
| 1777462992 | 4.44° C | 46% | 1025.3 hPa | - | - | 150 W/m² | - |
| 1777462576 | 4.44° C | 50% | 1025.3 hPa | - | - | 150 W/m² | - |
| 1777462160 | 3.33° C | 50% | 1025.2 hPa | - | - | 150 W/m² | - |
| 1777461328 | 3.33° C | 50% | 1025.3 hPa | - | - | 150 W/m² | - |
| 1777460913 | 3.89° C | 52% | 1025.2 hPa | - | - | 150 W/m² | - |
| 1777460496 | 3.89° C | 55% | 1025.1 hPa | - | - | 150 W/m² | - |
| 1777460081 | 3.33° C | 56% | 1025.1 hPa | - | - | 150 W/m² | - |
| 1777459665 | 3.33° C | 59% | 1025.3 hPa | - | - | 150 W/m² | - |
| 1777459249 | 3.33° C | 61% | 1025.2 hPa | - | - | 150 W/m² | - |
* Rain since midnight (hover to see other rain measurements)
** Current wind speed in m/s (hover to see current wind gust speed)